Location: Lombard
(41.8800°N, 88.0080°W)
Time: 13:42:59
(UTC-06:00)

Transit 4A - Pass Details

Date: 02 December 2023
Orbit: 870 x 973 km, 66.8° (Epoch: 03 March)

Event Time Altitude Azimuth Distance (km) Brightness Sun altitude
Rises 22:01:09 0° 253° (WSW) 3,662 - -61.1°
Reaches altitude 10° 22:04:19 10° 267° (W) 2,715 - -61.6°
Maximum altitude 22:09:12 23° 318° (NW) 1,944 - -62.3°
Drops below altitude 10° 22:14:04 10° 9° (N) 2,694 - -63.0°
Sets 22:17:13 0° 24° (NNE) 3,627 - -63.4°
